Location: Cahas Mountain Overlook
(37.0833°N, 80.1000°W)
Time: 11:13:40
(UTC-04:00)

A-11 Canister half - Pass Details

Date: 14 February 2026
Orbit: 1524 x 1683 km, 47.3° (Epoch: 16 March)

Event Time Altitude Azimuth Distance (km) Brightness Sun altitude
Rises 19:24:57 0° 269° (W) 4,690 13.3 -17.6°
Reaches altitude 10° 19:28:11 10° 275° (W) 3,698 12.3 -18.3°
Maximum altitude 19:37:06 49° 348° (NNW) 1,903 9.5 -20.0°
Enters shadow 19:43:07 22° 52° (NE) 2,866 10.0 -21.2°
